This is the latest recevied weather packets stored in our database for station/object N9CQS-15. If no packets are shown the sender has not sent any weather packets the latest 10 day(s).
| Time | Temp. | Humidity | Pressure | Rain* | Wind** | Luminosity | Snow |
|---|---|---|---|---|---|---|---|
| 1777514342 | 11.11° C | 56% | 1016.9 hPa | 0 mm | - | - | - |
| 1777513742 | 11.11° C | 55% | 1016.7 hPa | 0 mm | - | - | - |
| 1777513142 | 11.67° C | 54% | 1016.5 hPa | 0 mm | - | - | - |
| 1777512542 | 11.67° C | 53% | 1016.2 hPa | 0 mm | - | - | - |
| 1777511942 | 11.67° C | 52% | 1016 hPa | 0 mm | - | - | - |
| 1777511341 | 12.22° C | 52% | 1016 hPa | 0 mm | - | - | - |
| 1777510742 | 12.22° C | 49% | 1015.9 hPa | 0 mm | - | - | - |
| 1777510142 | 12.78° C | 49% | 1015.9 hPa | 0 mm | - | - | - |
| 1777509542 | 12.78° C | 48% | 1015.8 hPa | 0 mm | - | - | - |
| 1777508941 | 12.78° C | 47% | 1015.4 hPa | 0 mm | - | - | - |
| 1777508342 | 13.33° C | 46% | 1015.4 hPa | 0 mm | - | - | - |
| 1777507742 | 13.89° C | 43% | 1015.3 hPa | 0 mm | - | - | - |
| 1777507142 | 13.89° C | 43% | 1015.3 hPa | 0 mm | - | - | - |
| 1777506541 | 13.89° C | 45% | 1015.3 hPa | 0 mm | - | - | - |
| 1777505942 | 14.44° C | 45% | 1015.4 hPa | 0 mm | - | - | - |
| 1777505342 | 14.44° C | 46% | 1015.4 hPa | 0 mm | - | - | - |
| 1777504741 | 14.44° C | 50% | 1015.4 hPa | 0 mm | - | - | - |
| 1777504141 | 14.44° C | 49% | 1015.5 hPa | 0 mm | - | - | - |
| 1777503542 | 15° C | 46% | 1015.4 hPa | 0 mm | - | - | - |
| 1777502941 | 15° C | 46% | 1015 hPa | 0 mm | - | - | - |
| 1777502342 | 14.44° C | 47% | 1015.1 hPa | 0 mm | - | - | - |
| 1777501741 | 15° C | 47% | 1015 hPa | 0 mm | - | - | - |
| 1777501142 | 15° C | 47% | 1015.1 hPa | 0 mm | - | - | - |
| 1777500541 | 15.56° C | 45% | 1015.1 hPa | 0 mm | - | - | - |
| 1777499942 | 15.56° C | 45% | 1015 hPa | 0 mm | - | - | - |
* Rain latest hour (hover to see other rain measurements)
** Current wind speed in m/s (hover to see current wind gust speed)